Total_Precipitation_Accumulation
1.04 1.03 1.05 0.98 0.92 0.88 0.90 1.08 1.36 1.18 0.68 0.43 0.42 0.47 0.62 0.78 0.94 0.98 0.97 1.08 1.10 1.08 1.15 1.21 1.24 1.29 1.46 1.84 2.58 3.48 4.23 4.45 4.20 3.67 3.40 3.62 3.99 4.51
1.12 1.08 1.06 1.02 0.98 0.94 0.94 0.96 1.12 1.31 1.00 0.48 0.42 0.46 0.59 0.74 0.91 0.92 0.91 1.06 1.09 1.11 1.11 1.14 1.22 1.31 1.41 1.57 1.92 2.62 3.42 4.09 4.39 4.39 4.19 4.10 4.28 4.59
1.25 1.23 1.12 1.06 1.09 1.05 1.03 1.02 1.03 1.19 1.22 0.62 0.44 0.50 0.66 0.78 0.86 0.88 0.88 0.92 0.94 1.06 1.10 1.12 1.13 1.19 1.32 1.46 1.63 2.01 2.68 3.38 3.99 4.43 4.69 4.65 4.59 4.61
1.36 1.33 1.24 1.21 1.19 1.14 1.18 1.15 1.07 1.07 1.21 0.96 0.60 0.56 0.65 0.75 0.82 0.89 0.91 0.92 0.91 1.01 1.04 1.12 1.19 1.21 1.25 1.36 1.50 1.68 2.05 2.60 3.20 3.81 4.24 4.38 4.45 4.70
1.45 1.48 1.43 1.41 1.38 1.31 1.31 1.31 1.24 1.14 1.18 1.19 0.86 0.68 0.70 0.79 0.93 0.98 1.00 1.05 1.03 1.09 1.09 1.11 1.23 1.31 1.30 1.36 1.48 1.58 1.68 1.93 2.36 3.05 3.76 4.05 4.09 4.21
1.53 1.55 1.57 1.59 1.56 1.56 1.61 1.58 1.56 1.55 1.47 1.42 1.17 0.94 0.89 0.89 1.03 1.11 1.10 1.08 1.12 1.10 1.17 1.14 1.19 1.28 1.31 1.31 1.34 1.36 1.50 1.81 2.17 2.59 3.17 3.59 3.70 3.75
1.62 1.60 1.60 1.73 1.88 2.02 2.13 2.03 1.94 1.98 1.91 1.81 1.59 1.32 1.15 1.14 1.21 1.18 1.23 1.16 1.19 1.19 1.17 1.13 1.09 1.07 1.15 1.29 1.39 1.42 1.46 1.65 1.91 2.29 2.73 3.18 3.49 3.58
1.65 1.57 1.58 1.69 1.77 1.92 2.08 2.07 2.05 2.19 2.26 2.13 1.91 1.64 1.31 1.19 1.28 1.45 1.56 1.61 1.52 1.28 1.29 1.30 1.21 1.21 1.20 1.23 1.43 1.49 1.53 1.70 1.84 2.03 2.40 2.78 3.17 3.52
1.46 1.43 1.43 1.50 1.64 1.54 1.70 1.77 1.78 1.89 2.05 2.14 2.16 1.80 1.51 1.39 1.64 1.85 1.86 1.84 1.56 1.36 1.53 1.70 1.55 1.48 1.39 1.42 1.58 1.49 1.55 1.66 1.80 1.91 2.07 2.38 2.76 3.17
1.34 1.32 1.31 1.30 1.40 1.59 1.66 1.62 1.50 1.48 1.65 1.79 1.94 1.81 1.70 1.77 2.08 2.37 2.44 2.45 2.12 1.76 1.71 1.98 1.80 1.73 1.66 1.60 1.65 1.52 1.52 1.59 1.65 1.80 1.98 2.18 2.40 2.72
1.35 1.36 1.36 1.26 1.46 1.72 1.75 1.67 1.47 1.35 1.45 1.69 1.89 1.99 2.10 2.26 2.52 2.88 2.99 3.08 2.89 2.38 2.05 2.09 1.97 1.89 1.90 1.87 1.82 1.73 1.61 1.60 1.60 1.66 1.82 2.02 2.25 2.50
1.39 1.42 1.61 1.56 1.62 1.71 1.69 1.75 1.71 1.41 1.25 1.34 1.46 1.59 1.69 1.89 2.28 2.51 2.71 2.96 2.90 2.71 2.22 2.14 2.16 2.16 2.38 2.07 1.80 1.67 1.62 1.69 1.67 1.61 1.63 1.75 2.01 2.18
1.55 1.55 1.58 1.73 1.67 1.69 1.71 1.69 1.76 1.61 1.46 1.46 1.44 1.42 1.50 1.66 1.86 2.10 2.39 2.72 2.91 2.72 2.20 2.37 2.59 2.43 2.48 2.25 1.90 1.72 1.61 1.57 1.51 1.53 1.58 1.63 1.76 1.94
1.61 1.46 1.54 1.76 1.71 1.72 1.66 1.71 1.80 1.75 1.62 1.58 1.50 1.39 1.40 1.53 1.64 1.84 2.15 2.33 2.45 2.48 2.22 2.47 2.89 2.60 2.59 2.34 2.07 1.92 1.77 1.67 1.54 1.44 1.38 1.56 1.66 1.81
1.65 1.75 1.69 1.72 1.70 1.59 1.56 1.63 1.63 1.55 1.62 1.61 1.46 1.30 1.23 1.34 1.48 1.68 1.94 2.18 2.27 2.28 2.26 2.31 2.57 2.60 2.69 2.56 2.11 1.89 1.93 1.91 1.66 1.52 1.42 1.35 1.37 1.54
1.70 1.79 1.77 1.64 1.60 1.55 1.54 1.50 1.43 1.50 1.59 1.54 1.37 1.27 1.25 1.33 1.49 1.62 1.83 2.04 2.31 2.31 2.25 2.31 2.52 2.81 2.85 2.40 2.15 1.99 1.84 1.98 1.83 1.62 1.50 1.42 1.36 1.35
1.89 1.85 1.76 1.68 1.68 1.57 1.46 1.41 1.39 1.47 1.55 1.42 1.39 1.41 1.43 1.45 1.51 1.54 1.71 1.87 2.10 2.07 2.09 2.29 2.52 2.70 2.83 2.69 2.49 2.10 1.86 1.81 1.77 1.70 1.64 1.61 1.57 1.49
1.87 1.83 1.64 1.50 1.46 1.42 1.40 1.38 1.33 1.30 1.31 1.36 1.41 1.43 1.45 1.46 1.49 1.49 1.60 1.77 1.89 1.85 1.90 2.07 2.36 2.64 2.84 2.97 2.69 2.23 1.95 1.86 1.81 1.75 1.67 1.69 1.73 1.67
1.54 1.47 1.40 1.34 1.31 1.30 1.28 1.28 1.24 1.16 1.20 1.32 1.38 1.40 1.41 1.45 1.48 1.50 1.54 1.65 1.73 1.75 1.82 1.95 2.20 2.50 2.58 2.56 2.66 2.33 2.08 1.96 1.87 1.89 1.80 1.67 1.71 1.71
1.31 1.29 1.29 1.28 1.28 1.30 1.25 1.22 1.20 1.18 1.24 1.30 1.35 1.36 1.40 1.45 1.46 1.42 1.43 1.53 1.62 1.66 1.73 1.82 2.04 2.35 2.56 2.41 2.43 2.41 2.30 2.11 1.96 1.95 1.89 1.76 1.75 1.81
1.20 1.19 1.20 1.26 1.27 1.24 1.21 1.19 1.19 1.19 1.17 1.22 1.27 1.30 1.33 1.41 1.41 1.31 1.32 1.42 1.52 1.57 1.61 1.60 1.72 2.01 2.34 2.41 2.35 2.20 2.27 2.37 2.16 2.02 1.95 1.96 1.94 1.90
1.08 1.10 1.11 1.16 1.24 1.25 1.21 1.20 1.19 1.16 1.16 1.19 1.20 1.21 1.23 1.31 1.34 1.28 1.32 1.40 1.40 1.42 1.49 1.50 1.55 1.81 2.22 2.47 2.34 2.11 2.12 2.30 2.46 2.28 2.05 2.00 2.19 2.32
1.09 1.09 1.07 1.09 1.14 1.20 1.23 1.21 1.17 1.10 1.08 1.14 1.15 1.14 1.17 1.23 1.21 1.24 1.27 1.30 1.35 1.36 1.42 1.51 1.55 1.72 2.01 2.20 2.31 2.21 2.07 2.08 2.16 2.27 2.40 2.12 1.79 1.73